Location: Vassar Physics Lab
(41.6843°N, 73.8954°W)
Time: 13:44:42
(UTC-04:00)

CZ-4B DEB - Visible Passes

Search period start: 24 July 2014 00:00
Search period end: 03 August 2014 00:00
Orbit: 843 x 865 km, 98.8° (Epoch: 23 July)

Date Brightness Start Highest point End Pass type
(mag) Time Alt. Az. Time Alt. Az. Time Alt. Az.
24 Jul 5.8 03:40:23 10° NE 03:45:06 29° E 03:49:47 10° SSE visible
25 Jul 6.1 03:29:49 10° NE 03:34:08 24° E 03:38:25 10° SE visible
25 Jul 4.6 05:09:53 10° N 05:15:06 46° WNW 05:20:16 10° SW visible
26 Jul 6.4 03:19:22 10° NE 03:23:09 19° E 03:26:54 10° SE visible
26 Jul 4.4 04:58:54 10° N 05:04:16 58° WNW 05:09:35 10° SSW visible
27 Jul 6.6 03:09:07 10° NE 03:12:08 15° E 03:15:08 10° SE visible
27 Jul 4.2 04:47:58 10° N 04:53:26 72° WNW 04:58:50 10° SSW visible
28 Jul 6.8 02:59:21 10° ENE 03:01:07 12° E 03:02:52 10° ESE visible
28 Jul 4.2 04:37:04 10° NNE 04:42:34 88° WNW 04:48:01 10° SSW visible
29 Jul 4.4 04:26:12 10° NNE 04:31:41 75° ESE 04:37:08 10° S visible
30 Jul 4.7 04:15:22 10° NNE 04:20:47 60° ESE 04:26:10 10° S visible
31 Jul 5.0 04:04:35 10° NNE 04:09:52 48° E 04:15:07 10° S visible
01 Aug 5.4 03:53:51 10° NNE 03:58:56 38° E 04:03:59 10° SSE visible
02 Aug 5.7 03:43:11 10° NE 03:47:59 31° E 03:52:46 10° SSE visible
